Lid_Strength_Index
3 3 3 3 3 3 2 1 1 3 3 3 3 2 1 3 4 5 3 3 5 6 6 5 6 7 7 7 7 6 6 5 6 8 8 8 10 9 10 9 11 12 12 12 11 13 14 6 7 11 9 7 6 6
2 2 3 3 3 3 2 1 1 2 3 3 3 2 1 2 3 4 6 4 4 6 5 4 4 4 4 4 6 5 6 6 5 7 7 7 9 7 10 13 7 12 10 11 11 11 6 5 7 6 5 6 6 6
2 2 3 3 3 3 2 1 2 2 3 3 3 2 1 2 3 4 5 5 6 6 5 4 4 2 2 3 3 7 4 4 4 3 6 6 10 6 11 10 9 7 6 9 9 7 6 6 5 5 5 5 5 4
2 2 3 3 3 3 2 1 0 2 3 2 2 1 1 2 3 4 6 5 6 5 7 5 3 4 2 3 2 2 2 2 3 3 5 6 7 5 8 8 8 8 7 9 9 7 6 6 5 5 4 4 4 4
3 3 3 3 3 2 2 0 1 2 2 3 2 2 1 2 4 4 4 5 4 5 7 6 3 4 4 2 2 2 3 3 4 5 6 7 4 6 6 6 7 6 7 8 9 7 6 6 4 4 4 4 4 4
2 2 3 3 3 2 1 1 1 2 2 2 1 2 2 3 4 5 6 3 2 3 6 7 3 4 3 3 3 3 2 3 3 5 5 4 4 5 8 7 6 5 4 4 6 5 5 4 4 4 4 3 3 3
1 2 2 3 2 2 1 1 1 2 2 2 1 2 3 4 3 6 6 4 4 3 6 7 5 3 2 3 3 3 2 3 4 4 5 5 5 5 6 8 5 5 4 4 4 4 6 5 6 4 4 3 3 3
1 1 2 2 2 2 1 1 2 2 2 1 2 2 2 4 3 4 2 4 3 4 4 7 5 5 2 4 5 3 4 4 4 4 4 5 4 5 7 5 4 4 4 5 4 4 4 3 3 3 3 3 3 3
1 1 1 2 2 1 1 1 1 2 1 1 2 3 4 4 5 3 3 4 2 4 6 5 7 8 2 3 3 4 3 6 3 6 5 4 6 7 7 6 6 4 5 5 4 4 4 4 4 4 3 3 4 3
1 1 1 1 1 1 1 1 0 1 2 3 2 4 5 3 2 2 5 5 4 4 4 6 3 6 3 4 5 5 5 6 8 6 4 6 6 5 5 5 4 4 4 3 5 5 4 4 4 4 3 3 3 3
1 1 1 1 2 2 1 1 1 2 2 3 5 4 3 2 4 6 7 7 5 7 5 5 4 6 3 6 5 4 6 5 9 7 7 7 9 7 5 5 4 3 3 3 3 3 3 3 3 3 3 3 3 2
1 1 0 1 2 2 1 1 2 2 3 3 3 3 4 7 7 8 8 6 7 8 5 5 4 4 3 3 5 5 7 6 10 5 8 10 8 5 5 5 4 3 3 3 3 3 3 3 2 2 2 3 2 2
0 0 1 2 1 1 2 2 2 3 2 2 3 6 7 6 11 10 11 8 8 6 5 5 6 4 4 4 5 6 9 8 4 8 10 9 6 5 5 4 4 3 3 3 3 3 3 3 2 2 3 2 2 2
0 1 2 2 1 1 2 2 3 2 2 4 7 11 9 9 8 7 7 5 5 3 4 4 5 5 3 6 5 9 6 6 9 11 12 7 6 5 4 4 4 4 4 4 4 3 3 3 3 2 2 2 2 2
1 1 1 1 1 1 1 2 2 1 2 6 6 11 9 6 5 4 3 3 3 2 4 5 5 4 5 7 5 6 9 10 9 10 7 6 5 4 4 4 4 4 4 4 3 3 3 3 3 2 2 2 1 1
1 1 1 0 1 2 2 2 2 2 4 5 6 8 6 7 6 5 4 3 2 3 3 4 6 7 7 6 8 9 9 10 8 6 5 4 4 4 4 4 3 3 3 3 3 3 3 2 2 2 2 1 1 1
2 2 1 1 1 2 1 2 3 5 6 7 7 4 5 5 6 5 3 4 2 4 6 5 8 9 5 7 8 6 8 7 5 5 4 4 4 4 3 3 3 3 3 3 3 2 3 2 1 2 2 2 1 1
2 1 2 2 2 3 3 4 5 6 8 6 7 6 5 4 4 5 4 4 3 3 4 6 5 7 7 9 7 6 4 4 3 3 3 3 3 3 3 3 3 3 3 3 3 3 2 2 2 2 2 1 2 1
1 0 2 2 2 4 7 6 5 8 7 6 5 4 4 5 4 3 3 3 3 3 3 4 7 6 6 5 5 4 3 4 4 4 3 3 2 3 3 3 3 3 3 3 3 3 2 2 2 2 2 2 2 2
1 2 2 2 2 4 7 6 4 6 7 6 5 5 5 5 5 4 4 4 4 5 5 6 5 4 5 4 3 3 3 3 3 4 4 3 2 2 3 3 3 3 3 2 2 4 2 2 2 1 1 2 2 2
2 2 3 2 4 4 5 5 7 7 6 6 5 5 5 4 5 5 5 4 5 5 6 5 5 4 3 2 2 2 2 3 3 3 3 4 2 3 4 3 3 3 3 3 3 3 4 2 1 1 1 2 1 1
3 3 3 3 5 6 6 5 6 5 5 6 6 5 6 6 6 6 5 7 7 7 6 6 5 5 4 3 3 2 1 2 1 2 4 3 3 4 4 3 3 3 3 2 2 2 2 2 2 1 1 1 2 1
4 4 5 6 9 9 9 4 8 7 9 8 6 7 7 7 6 4 7 5 5 4 4 4 3 2 3 2 2 2 1 2 3 2 2 3 3 3 3 3 3 3 4 2 1 1 1 4 2 1 1 1 1 1
4 6 8 9 9 10 6 8 6 7 7 8 8 10 8 6 4 5 7 5 4 2 3 3 3 3 3 3 3 2 2 1 2 3 3 3 4 4 3 2 2 1 2 1 1 1 1 1 4 1 1 2 2 2
10 10 9 13 8 10 11 9 9 7 10 8 9 9 7 4 7 9 9 7 5 4 3 2 3 3 4 4 3 3 2 2 4 4 3 2 3 3 3 2 2 1 1 2 2 2 2 1 1 2 2 2 2 2
13 9 11 9 8 9 9 11 11 10 8 8 8 8 8 10 12 11 9 6 5 5 4 4 5 5 4 3 4 4 3 1 2 3 2 2 2 2 3 3 3 2 1 1 2 2 2 2 2 3 3 2 4 2
12 11 9 7 8 9 10 10 10 11 13 13 11 12 12 14 11 9 6 4 5 3 3 2 3 3 4 3 2 1 1 1 2 2 1 1 1 1 1 2 3 2 0 0 1 1 1 2 2 2 2 2 1 1
10 9 12 10 10 10 12 12 12 12 12 10 10 12 11 10 10 6 5 3 3 2 2 3 3 3 2 1 1 1 1 0 -0 0 1 0 0 1 0 1 1 6 2 3 3 3 3 3 2 1 2 2 2 1
10 9 10 11 11 11 11 10 8 6 5 6 8 10 9 7 6 6 5 3 2 2 3 4 2 1 1 1 2 2 2 2 2 3 3 3 3 2 2 2 2 2 2 2 8 5 3 3 2 2 2 1 1 1
10 8 9 9 9 9 6 5 5 4 4 4 5 5 5 4 3 2 2 2 3 3 3 3 3 3 3 3 3 2 2 2 2 3 3 3 3 1 1 1 1 1 1 1 2 2 5 4 5 3 3 3 3 3
7 8 7 6 7 6 4 3 3 3 4 4 4 5 5 4 4 3 3 3 3 3 3 3 3 3 4 4 4 5 5 3 3 2 2 2 2 2 3 3 3 3 3 3 3 4 4 4 4 4 4 4 4 4
5 6 7 8 7 4 3 4 4 5 4 4 4 4 4 4 5 3 3 3 4 5 6 5 5 5 4 4 4 4 7 4 4 3 3 3 3 3 3 3 3 3 4 4 4 4 4 4 4 4 4 5 5 5
5 5 5 6 6 6 4 5 6 6 5 5 5 4 4 5 6 4 2 3 4 5 5 5 4 4 4 4 4 4 6 4 7 10 9 10 10 8 4 3 3 3 4 4 5 5 5 5 6 6 6 6 6 6